FALCON 9 DEB, 48837

Orbit data source: Space-Track

FALCON 9 DEB, 48837 is space debris in LEO originally from a launch on Sat, 15 May 2021 UTC launched from the Air Force Eastern Test Range (AFETR). Debris objects in space refer to the collection of defunct objects orbiting the Earth. Examples of debris include non-operational satellites, rocket bodies, and fragments generated from explosions, collisions, or faulty payload assembly.

Loading next visibility...
Identifier
48837, 2021-041BL
Orbit
LEO
Country
Flag of USUS
Related business
Manufacturer
SpaceX/Seattle
Mission
Spacecraft
Bus & Motor
Unknown
Mass
~50 kg wet, ~50 kg dry
Launch date (UTC)
2021-05-15 (5 years ago)
Launch vehicle
Unknown
Launch site
Air Force Eastern Test Range (AFETR)
Object type
Payload
Rocket body
Debris
Shape & HBR
Cyl, 1.0 m
Radar Cross Section
1.885 m², Medium (>0.1 m² and < 1m²)

Expand to show TLE details & history
Last TLE update: 3 days ago

TLE from 3 days ago
0 FALCON 9 DEB
1 48837U 21041BL  26170.93226720  .00002155  00000-0  13831-3 0  9997
2 48837  53.0281  84.1936 0012878 133.6763 226.5298 15.12782736277290
Epoch: 2026-06-19T22:22Z
TLE epoch observation values (Epoch: 2026-06-19T22:22:27.886Z)
Latitude
Longitude
-159.57674°
Altitude
534.721 km
Speed
7.593 km/s
True Right ascension
05h 36m 46s
True Declination
0° 00' 00"
Sunlit
Object was in daylight at epoch
Visualization orbit readout
Latitude
Unknown
Longitude
Unknown
Altitude
Unknown
Speed
Unknown
Apparent Right ascension
Unknown
Apparent Declination
Unknown
Sunlit
N/A
Visualization observer readout
Local Sidereal Time
21:34:53
Azimuth
Unknown
Elevation
Unknown
Doppler factor
Unknown
Orbital elements
Apogee altitude
536.888 km
Perigee altitude
519.1 km
Semi-major axis
6,906.131 km
Eccentricity
0.00129
Inclination
53.0281°
RAAN
84.1936°
Arg. of periapsis
133.6763°
True anomaly
226.42282°
Mean anomaly
226.5298°
Eccentric anomaly
226.4763°
Mean motion
3.78173 °/min
Orbital period
95.19 mins
BSTAR
0.00013831
Loading maneuver chart data...
Computing Atmospheric mass density...
Loading historical data...
Loading historical data...
Loading historical data...
Loading historical data...
Loading historical data...
Loading historical data...
Loading historical data...

Documentation

Showing up to 5 results
|